Year,Month,Day,Hour,Minute,Value (Times are PST for temperature in C)
2009,08,21,00,00,16.50
2009,08,21,00,01,16.50
2009,08,21,00,02,16.50
2009,08,21,00,03,16.50
2009,08,21,00,04,16.60
2009,08,21,00,05,16.60
2009,08,21,00,06,16.60
2009,08,21,00,07,16.60
2009,08,21,00,08,16.60
2009,08,21,00,09,16.60
2009,08,21,00,10,16.60
2009,08,21,00,11,16.60
2009,08,21,00,12,16.60
2009,08,21,00,13,16.60
2009,08,21,00,14,16.50
2009,08,21,00,15,16.50
2009,08,21,00,16,16.50
2009,08,21,00,17,16.50
2009,08,21,00,18,16.40
2009,08,21,00,19,16.40
2009,08,21,00,20,16.40
2009,08,21,00,21,16.40
2009,08,21,00,22,16.40
2009,08,21,00,23,16.40
2009,08,21,00,24,16.40
2009,08,21,00,25,16.40
2009,08,21,00,26,16.40
2009,08,21,00,27,16.40
2009,08,21,00,28,16.40
2009,08,21,00,29,16.40
2009,08,21,00,30,16.30
2009,08,21,00,31,16.30
2009,08,21,00,32,16.30
2009,08,21,00,33,16.30
2009,08,21,00,34,16.30
2009,08,21,00,35,16.30
2009,08,21,00,36,16.30
2009,08,21,00,37,16.30
2009,08,21,00,38,16.30
2009,08,21,00,39,16.30
2009,08,21,00,40,16.30
2009,08,21,00,41,16.30
2009,08,21,00,42,16.30
2009,08,21,00,43,16.30
2009,08,21,00,44,16.30
2009,08,21,00,45,16.30
2009,08,21,00,46,16.30
2009,08,21,00,47,16.20
2009,08,21,00,48,16.20
2009,08,21,00,49,16.20
2009,08,21,00,50,16.20
2009,08,21,00,51,16.20
2009,08,21,00,52,16.20
2009,08,21,00,53,16.10
2009,08,21,00,54,16.10
2009,08,21,00,55,16.10
2009,08,21,00,56,16.10
2009,08,21,00,57,16.00
2009,08,21,00,58,16.00
2009,08,21,00,59,16.00
2009,08,21,01,00,15.90
2009,08,21,01,01,15.90
2009,08,21,01,02,15.90
2009,08,21,01,03,15.90
2009,08,21,01,04,15.90
2009,08,21,01,05,15.90
2009,08,21,01,06,15.90
2009,08,21,01,07,15.90
2009,08,21,01,08,16.00
2009,08,21,01,09,16.00
2009,08,21,01,10,16.10
2009,08,21,01,11,16.10
2009,08,21,01,12,16.10
2009,08,21,01,13,16.10
2009,08,21,01,14,16.10
2009,08,21,01,15,16.10
2009,08,21,01,16,16.10
2009,08,21,01,17,16.00
2009,08,21,01,18,16.00
2009,08,21,01,19,16.00
2009,08,21,01,20,16.00
2009,08,21,01,21,15.90
2009,08,21,01,22,15.90
2009,08,21,01,23,15.90
2009,08,21,01,24,15.90
2009,08,21,01,25,15.90
2009,08,21,01,26,15.90
2009,08,21,01,27,15.80
2009,08,21,01,28,15.80
2009,08,21,01,29,15.80
2009,08,21,01,30,15.80
2009,08,21,01,31,15.80
2009,08,21,01,32,15.80
2009,08,21,01,33,15.80
2009,08,21,01,34,15.80
2009,08,21,01,35,15.70
2009,08,21,01,36,15.70
2009,08,21,01,37,15.70
2009,08,21,01,38,15.70
2009,08,21,01,39,15.80
2009,08,21,01,40,15.80
2009,08,21,01,41,15.80
2009,08,21,01,42,15.80
2009,08,21,01,43,15.80
2009,08,21,01,44,15.80
2009,08,21,01,45,15.80
2009,08,21,01,46,15.80
2009,08,21,01,47,15.80
2009,08,21,01,48,15.80
2009,08,21,01,49,15.80
2009,08,21,01,50,15.80
2009,08,21,01,51,15.80
2009,08,21,01,52,15.80
2009,08,21,01,53,15.80
2009,08,21,01,54,15.80
2009,08,21,01,55,15.80
2009,08,21,01,56,15.80
2009,08,21,01,57,15.80
2009,08,21,01,58,15.90
2009,08,21,01,59,15.90
2009,08,21,02,00,15.90
2009,08,21,02,01,15.90
2009,08,21,02,02,15.90
2009,08,21,02,03,15.90
2009,08,21,02,04,15.90
2009,08,21,02,05,15.90
2009,08,21,02,06,15.90
2009,08,21,02,07,15.90
2009,08,21,02,08,15.90
2009,08,21,02,09,16.00
2009,08,21,02,10,16.00
2009,08,21,02,11,16.00
2009,08,21,02,12,16.00
2009,08,21,02,13,16.00
2009,08,21,02,14,16.00
2009,08,21,02,15,16.00
2009,08,21,02,16,16.00
2009,08,21,02,17,16.00
2009,08,21,02,18,16.00
2009,08,21,02,19,15.90
2009,08,21,02,20,15.90
2009,08,21,02,21,15.90
2009,08,21,02,22,15.90
2009,08,21,02,23,15.90
2009,08,21,02,24,15.90
2009,08,21,02,25,15.90
2009,08,21,02,26,15.90
2009,08,21,02,27,15.90
2009,08,21,02,28,15.90
2009,08,21,02,29,15.90
2009,08,21,02,30,15.90
2009,08,21,02,31,15.90
2009,08,21,02,32,15.90
2009,08,21,02,33,15.80
2009,08,21,02,34,15.80
2009,08,21,02,35,15.80
2009,08,21,02,36,15.80
2009,08,21,02,37,15.80
2009,08,21,02,38,15.70
2009,08,21,02,39,15.70
2009,08,21,02,40,15.70
2009,08,21,02,41,15.70
2009,08,21,02,42,15.70
2009,08,21,02,43,15.70
2009,08,21,02,44,15.70
2009,08,21,02,45,15.70
2009,08,21,02,46,15.60
2009,08,21,02,47,15.60
2009,08,21,02,48,15.70
2009,08,21,02,49,15.70
2009,08,21,02,50,15.70
2009,08,21,02,51,15.60
2009,08,21,02,52,15.60
2009,08,21,02,53,15.60
2009,08,21,02,54,15.60
2009,08,21,02,55,15.60
2009,08,21,02,56,15.60
2009,08,21,02,57,15.60
2009,08,21,02,58,15.60
2009,08,21,02,59,15.60
2009,08,21,03,00,15.50
2009,08,21,03,01,15.50
2009,08,21,03,02,15.50
2009,08,21,03,03,15.50
2009,08,21,03,04,15.50
2009,08,21,03,05,15.40
2009,08,21,03,06,15.40
2009,08,21,03,07,15.40
2009,08,21,03,08,15.40
2009,08,21,03,09,15.40
2009,08,21,03,10,15.40
2009,08,21,03,11,15.40
2009,08,21,03,12,15.30
2009,08,21,03,13,15.30
2009,08,21,03,14,15.30
2009,08,21,03,15,15.30
2009,08,21,03,16,15.30
2009,08,21,03,17,15.30
2009,08,21,03,18,15.20
2009,08,21,03,19,15.20
2009,08,21,03,20,15.20
2009,08,21,03,21,15.20
2009,08,21,03,22,15.10
2009,08,21,03,23,15.10
2009,08,21,03,24,15.10
2009,08,21,03,25,15.10
2009,08,21,03,26,15.00
2009,08,21,03,27,15.00
2009,08,21,03,28,15.00
2009,08,21,03,29,15.00
2009,08,21,03,30,15.00
2009,08,21,03,31,15.00
2009,08,21,03,32,15.00
2009,08,21,03,33,15.00
2009,08,21,03,34,15.00
2009,08,21,03,35,15.00
2009,08,21,03,36,15.00
2009,08,21,03,37,15.00
2009,08,21,03,38,15.00
2009,08,21,03,39,15.00
2009,08,21,03,40,15.00
2009,08,21,03,41,15.00
2009,08,21,03,42,15.00
2009,08,21,03,43,15.00
2009,08,21,03,44,15.00
2009,08,21,03,45,15.00
2009,08,21,03,46,15.00
2009,08,21,03,47,15.00
2009,08,21,03,48,15.00
2009,08,21,03,49,14.90
2009,08,21,03,50,14.90
2009,08,21,03,51,14.90
2009,08,21,03,52,14.90
2009,08,21,03,53,14.80
2009,08,21,03,54,14.80
2009,08,21,03,55,14.80
2009,08,21,03,56,14.80
2009,08,21,03,57,14.80
2009,08,21,03,58,14.80
2009,08,21,03,59,14.80
2009,08,21,04,00,14.80
2009,08,21,04,01,14.80
2009,08,21,04,02,14.80
2009,08,21,04,03,14.80
2009,08,21,04,04,14.80
2009,08,21,04,05,14.80
2009,08,21,04,06,14.80
2009,08,21,04,07,14.80
2009,08,21,04,08,14.80
2009,08,21,04,09,14.80
2009,08,21,04,10,14.80
2009,08,21,04,11,14.80
2009,08,21,04,12,14.80
2009,08,21,04,13,14.80
2009,08,21,04,14,14.80
2009,08,21,04,15,14.80
2009,08,21,04,16,14.80
2009,08,21,04,17,14.80
2009,08,21,04,18,14.80
2009,08,21,04,19,14.70
2009,08,21,04,20,14.70
2009,08,21,04,21,14.70
2009,08,21,04,22,14.70
2009,08,21,04,23,14.70
2009,08,21,04,24,14.70
2009,08,21,04,25,14.70
2009,08,21,04,26,14.70
2009,08,21,04,27,14.70
2009,08,21,04,28,14.70
2009,08,21,04,29,14.70
2009,08,21,04,30,14.70
2009,08,21,04,31,14.60
2009,08,21,04,32,14.60
2009,08,21,04,33,14.60
2009,08,21,04,34,14.60
2009,08,21,04,35,14.60
2009,08,21,04,36,14.60
2009,08,21,04,37,14.60
2009,08,21,04,38,14.60
2009,08,21,04,39,14.60
2009,08,21,04,40,14.60
2009,08,21,04,41,14.60
2009,08,21,04,42,14.60
2009,08,21,04,43,14.60
2009,08,21,04,44,14.60
2009,08,21,04,45,14.60
2009,08,21,04,46,14.50
2009,08,21,04,47,14.50
2009,08,21,04,48,14.50
2009,08,21,04,49,14.50
2009,08,21,04,50,14.50
2009,08,21,04,51,14.40
2009,08,21,04,52,14.40
2009,08,21,04,53,14.40
2009,08,21,04,54,14.40
2009,08,21,04,55,14.40
2009,08,21,04,56,14.40
2009,08,21,04,57,14.40
2009,08,21,04,58,14.30
2009,08,21,04,59,14.30
2009,08,21,05,00,14.30
2009,08,21,05,01,14.30
2009,08,21,05,02,14.30
2009,08,21,05,03,14.20
2009,08,21,05,04,14.20
2009,08,21,05,05,14.20
2009,08,21,05,06,14.20
2009,08,21,05,07,14.20
2009,08,21,05,08,14.10
2009,08,21,05,09,14.10
2009,08,21,05,10,14.10
2009,08,21,05,11,14.00
2009,08,21,05,12,14.00
2009,08,21,05,13,13.90
2009,08,21,05,14,13.90
2009,08,21,05,15,13.90
2009,08,21,05,16,13.90
2009,08,21,05,17,13.80
2009,08,21,05,18,13.80
2009,08,21,05,19,13.70
2009,08,21,05,20,13.70
2009,08,21,05,21,13.70
2009,08,21,05,22,13.60
2009,08,21,05,23,13.60
2009,08,21,05,24,13.60
2009,08,21,05,25,13.60
2009,08,21,05,26,13.50
2009,08,21,05,27,13.50
2009,08,21,05,28,13.50
2009,08,21,05,29,13.50
2009,08,21,05,30,13.40
2009,08,21,05,31,13.40
2009,08,21,05,32,13.40
2009,08,21,05,33,13.40
2009,08,21,05,34,13.40
2009,08,21,05,35,13.40
2009,08,21,05,36,13.40
2009,08,21,05,37,13.40
2009,08,21,05,38,13.40
2009,08,21,05,39,13.40
2009,08,21,05,40,13.40
2009,08,21,05,41,13.40
2009,08,21,05,42,13.40
2009,08,21,05,43,13.30
2009,08,21,05,44,13.30
2009,08,21,05,45,13.30
2009,08,21,05,46,13.30
2009,08,21,05,47,13.30
2009,08,21,05,48,13.30
2009,08,21,05,49,13.30
2009,08,21,05,50,13.30
2009,08,21,05,51,13.30
2009,08,21,05,52,13.30
2009,08,21,05,53,13.30
2009,08,21,05,54,13.30
2009,08,21,05,55,13.30
2009,08,21,05,56,13.30
2009,08,21,05,57,13.30
2009,08,21,05,58,13.30
2009,08,21,05,59,13.20
2009,08,21,06,00,13.20
2009,08,21,06,01,13.20
2009,08,21,06,02,13.20
2009,08,21,06,03,13.20
2009,08,21,06,04,13.20
2009,08,21,06,05,13.20
2009,08,21,06,06,13.20
2009,08,21,06,07,13.20
2009,08,21,06,08,13.20
2009,08,21,06,09,13.20
2009,08,21,06,10,13.20
2009,08,21,06,11,13.20
2009,08,21,06,12,13.20
2009,08,21,06,13,13.20
2009,08,21,06,14,13.10
2009,08,21,06,15,13.10
2009,08,21,06,16,13.10
2009,08,21,06,17,13.10
2009,08,21,06,18,13.10
2009,08,21,06,19,13.10
2009,08,21,06,20,13.10
2009,08,21,06,21,13.10
2009,08,21,06,22,13.10
2009,08,21,06,23,13.00
2009,08,21,06,24,13.00
2009,08,21,06,25,13.00
2009,08,21,06,26,13.00
2009,08,21,06,27,13.00
2009,08,21,06,28,12.90
2009,08,21,06,29,12.90
2009,08,21,06,30,12.90
2009,08,21,06,31,12.90
2009,08,21,06,32,12.90
2009,08,21,06,33,12.90
2009,08,21,06,34,12.90
2009,08,21,06,35,12.90
2009,08,21,06,36,12.90
2009,08,21,06,37,12.90
2009,08,21,06,38,12.90
2009,08,21,06,39,12.80
2009,08,21,06,40,12.80
2009,08,21,06,41,12.80
2009,08,21,06,42,12.80
2009,08,21,06,43,12.80
2009,08,21,06,44,12.80
2009,08,21,06,45,12.80
2009,08,21,06,46,12.80
2009,08,21,06,47,12.80
2009,08,21,06,48,12.80
2009,08,21,06,49,12.80
2009,08,21,06,50,12.80
2009,08,21,06,51,12.80
2009,08,21,06,52,12.80
2009,08,21,06,53,12.80
2009,08,21,06,54,12.80
2009,08,21,06,55,12.80
2009,08,21,06,56,12.80
2009,08,21,06,57,12.90
2009,08,21,06,58,12.90
2009,08,21,06,59,12.90
2009,08,21,07,00,12.90
2009,08,21,07,01,12.90
2009,08,21,07,02,12.90
2009,08,21,07,03,12.90
2009,08,21,07,04,12.90
2009,08,21,07,05,12.90
2009,08,21,07,06,12.90
2009,08,21,07,07,13.00
2009,08,21,07,08,13.00
2009,08,21,07,09,13.00
2009,08,21,07,10,13.00
2009,08,21,07,11,13.00
2009,08,21,07,12,13.10
2009,08,21,07,13,13.10
2009,08,21,07,14,13.10
2009,08,21,07,15,13.20
2009,08,21,07,16,13.20
2009,08,21,07,17,13.20
2009,08,21,07,18,13.30
2009,08,21,07,19,13.30
2009,08,21,07,20,13.30
2009,08,21,07,21,13.40
2009,08,21,07,22,13.40
2009,08,21,07,23,13.40
2009,08,21,07,24,13.50
2009,08,21,07,25,13.50
2009,08,21,07,26,13.50
2009,08,21,07,27,13.60
2009,08,21,07,28,13.70
2009,08,21,07,29,13.70
2009,08,21,07,30,13.70
2009,08,21,07,31,13.80
2009,08,21,07,32,13.80
2009,08,21,07,33,13.80
2009,08,21,07,34,13.90
2009,08,21,07,35,13.90
2009,08,21,07,36,13.90
2009,08,21,07,37,14.00
2009,08,21,07,38,14.00
2009,08,21,07,39,14.10
2009,08,21,07,40,14.10
2009,08,21,07,41,14.20
2009,08,21,07,42,14.20
2009,08,21,07,43,14.30
2009,08,21,07,44,14.30
2009,08,21,07,45,14.40
2009,08,21,07,46,14.40
2009,08,21,07,47,14.50
2009,08,21,07,48,14.50
2009,08,21,07,49,14.60
2009,08,21,07,50,14.70
2009,08,21,07,51,14.70
2009,08,21,07,52,14.80
2009,08,21,07,53,14.80
2009,08,21,07,54,14.90
2009,08,21,07,55,14.90
2009,08,21,07,56,15.00
2009,08,21,07,57,15.00
2009,08,21,07,58,15.00
2009,08,21,07,59,15.00
2009,08,21,08,00,15.00
2009,08,21,08,01,15.00
2009,08,21,08,02,15.00
2009,08,21,08,03,15.10
2009,08,21,08,04,15.20
2009,08,21,08,05,15.30
2009,08,21,08,06,15.30
2009,08,21,08,07,15.40
2009,08,21,08,08,15.40
2009,08,21,08,09,15.50
2009,08,21,08,10,15.60
2009,08,21,08,11,15.70
2009,08,21,08,12,15.70
2009,08,21,08,13,15.80
2009,08,21,08,14,15.90
2009,08,21,08,15,15.90
2009,08,21,08,16,16.00
2009,08,21,08,17,16.10
2009,08,21,08,18,16.20
2009,08,21,08,19,16.30
2009,08,21,08,20,16.30
2009,08,21,08,21,16.40
2009,08,21,08,22,16.50
2009,08,21,08,23,16.60
2009,08,21,08,24,16.60
2009,08,21,08,25,16.70
2009,08,21,08,26,16.80
2009,08,21,08,27,16.80
2009,08,21,08,28,16.80
2009,08,21,08,29,16.90
2009,08,21,08,30,16.90
2009,08,21,08,31,16.90
2009,08,21,08,32,17.00
2009,08,21,08,33,17.00
2009,08,21,08,34,17.10
2009,08,21,08,35,17.10
2009,08,21,08,36,17.10
2009,08,21,08,37,17.10
2009,08,21,08,38,17.20
2009,08,21,08,39,17.20
2009,08,21,08,40,17.20
2009,08,21,08,41,17.20
2009,08,21,08,42,17.20
2009,08,21,08,43,17.20
2009,08,21,08,44,17.20
2009,08,21,08,45,17.20
2009,08,21,08,46,17.20
2009,08,21,08,47,17.20
2009,08,21,08,48,17.20
2009,08,21,08,49,17.20
2009,08,21,08,50,17.20
2009,08,21,08,51,17.20
2009,08,21,08,52,17.20
2009,08,21,08,53,17.20
2009,08,21,08,54,17.20
2009,08,21,08,55,17.20
2009,08,21,08,56,17.20
2009,08,21,08,57,17.20
2009,08,21,08,58,17.20
2009,08,21,08,59,17.20
2009,08,21,09,00,17.30
2009,08,21,09,01,17.30
2009,08,21,09,02,17.30
2009,08,21,09,03,17.30
2009,08,21,09,04,17.30
2009,08,21,09,05,17.40
2009,08,21,09,06,17.40
2009,08,21,09,07,17.40
2009,08,21,09,08,17.40
2009,08,21,09,09,17.50
2009,08,21,09,10,17.50
2009,08,21,09,11,17.60
2009,08,21,09,12,17.60
2009,08,21,09,13,17.70
2009,08,21,09,14,17.70
2009,08,21,09,15,17.70
2009,08,21,09,16,17.80
2009,08,21,09,17,17.80
2009,08,21,09,18,17.80
2009,08,21,09,19,17.90
2009,08,21,09,20,17.90
2009,08,21,09,21,18.00
2009,08,21,09,22,18.10
2009,08,21,09,23,18.10
2009,08,21,09,24,18.20
2009,08,21,09,25,18.20
2009,08,21,09,26,18.20
2009,08,21,09,27,18.30
2009,08,21,09,28,18.30
2009,08,21,09,29,18.30
2009,08,21,09,30,18.30
2009,08,21,09,31,18.30
2009,08,21,09,32,18.30
2009,08,21,09,33,18.30
2009,08,21,09,34,18.30
2009,08,21,09,35,18.20
2009,08,21,09,36,18.20
2009,08,21,09,37,18.20
2009,08,21,09,38,18.10
2009,08,21,09,39,18.10
2009,08,21,09,40,18.00
2009,08,21,09,41,18.00
2009,08,21,09,42,17.90
2009,08,21,09,43,17.90
2009,08,21,09,44,17.90
2009,08,21,09,45,17.90
2009,08,21,09,46,17.90
2009,08,21,09,47,17.90
2009,08,21,09,48,17.90
2009,08,21,09,49,17.90
2009,08,21,09,50,17.90
2009,08,21,09,51,17.90
2009,08,21,09,52,18.00
2009,08,21,09,53,18.00
2009,08,21,09,54,18.00
2009,08,21,09,55,18.00
2009,08,21,09,56,18.00
2009,08,21,09,57,17.90
2009,08,21,09,58,17.90
2009,08,21,09,59,17.80
2009,08,21,10,00,17.80
2009,08,21,10,01,17.80
2009,08,21,10,02,17.80
2009,08,21,10,03,17.80
2009,08,21,10,04,17.70
2009,08,21,10,05,17.70
2009,08,21,10,06,17.70
2009,08,21,10,07,17.70
2009,08,21,10,08,17.70
2009,08,21,10,09,17.70
2009,08,21,10,10,17.70
2009,08,21,10,11,17.60
2009,08,21,10,12,17.60
2009,08,21,10,13,17.60
2009,08,21,10,14,17.60
2009,08,21,10,15,17.60
2009,08,21,10,16,17.60
2009,08,21,10,17,17.60
2009,08,21,10,18,17.60
2009,08,21,10,19,17.60
2009,08,21,10,20,17.60
2009,08,21,10,21,17.60
2009,08,21,10,22,17.60
2009,08,21,10,23,17.60
2009,08,21,10,24,17.60
2009,08,21,10,25,17.60
2009,08,21,10,26,17.60
2009,08,21,10,27,17.60
2009,08,21,10,28,17.60
2009,08,21,10,29,17.60
2009,08,21,10,30,17.60
2009,08,21,10,31,17.60
2009,08,21,10,32,17.50
2009,08,21,10,33,17.50
2009,08,21,10,34,17.50
2009,08,21,10,35,17.50
2009,08,21,10,36,17.50
2009,08,21,10,37,17.50
2009,08,21,10,38,17.50
2009,08,21,10,39,17.50
2009,08,21,10,40,17.50
2009,08,21,10,41,17.50
2009,08,21,10,42,17.50
2009,08,21,10,43,17.50
2009,08,21,10,44,17.50
2009,08,21,10,45,17.60
2009,08,21,10,46,17.60
2009,08,21,10,47,17.70
2009,08,21,10,48,17.70
2009,08,21,10,49,17.80
2009,08,21,10,50,17.80
2009,08,21,10,51,17.70
2009,08,21,10,52,17.70
2009,08,21,10,53,17.70
2009,08,21,10,54,17.70
2009,08,21,10,55,17.80
2009,08,21,10,56,17.70
2009,08,21,10,57,17.70
2009,08,21,10,58,17.70
2009,08,21,10,59,17.70
2009,08,21,11,00,17.70
2009,08,21,11,01,17.70
2009,08,21,11,02,17.60
2009,08,21,11,03,17.60
2009,08,21,11,04,17.60
2009,08,21,11,05,17.60
2009,08,21,11,06,17.60
2009,08,21,11,07,17.60
2009,08,21,11,08,17.60
2009,08,21,11,09,17.60
2009,08,21,11,10,17.60
2009,08,21,11,11,17.60
2009,08,21,11,12,17.60
2009,08,21,11,13,17.60
2009,08,21,11,14,17.60
2009,08,21,11,15,17.60
2009,08,21,11,16,17.70
2009,08,21,11,17,17.70
2009,08,21,11,18,17.70
2009,08,21,11,19,17.70
2009,08,21,11,20,17.70
2009,08,21,11,21,17.70
2009,08,21,11,22,17.70
2009,08,21,11,23,17.80
2009,08,21,11,24,17.80
2009,08,21,11,25,17.80
2009,08,21,11,26,17.80
2009,08,21,11,27,17.90
2009,08,21,11,28,17.90
2009,08,21,11,29,17.90
2009,08,21,11,30,17.90
2009,08,21,11,31,17.90
2009,08,21,11,32,18.00
2009,08,21,11,33,18.00
2009,08,21,11,34,18.00
2009,08,21,11,35,18.00
2009,08,21,11,36,18.00
2009,08,21,11,37,18.10
2009,08,21,11,38,18.10
2009,08,21,11,39,18.10
2009,08,21,11,40,18.10
2009,08,21,11,41,18.10
2009,08,21,11,42,18.10
2009,08,21,11,43,18.10
2009,08,21,11,44,18.10
2009,08,21,11,45,18.10
2009,08,21,11,46,18.20
2009,08,21,11,47,18.20
2009,08,21,11,48,18.20
2009,08,21,11,49,18.20
2009,08,21,11,50,18.20
2009,08,21,11,51,18.20
2009,08,21,11,52,18.20
2009,08,21,11,53,18.30
2009,08,21,11,54,18.30
2009,08,21,11,55,18.30
2009,08,21,11,56,18.30
2009,08,21,11,57,18.30
2009,08,21,11,58,18.30
2009,08,21,11,59,18.30
2009,08,21,12,00,18.30
2009,08,21,12,01,18.30
2009,08,21,12,02,18.30
2009,08,21,12,03,18.30
2009,08,21,12,04,18.30
2009,08,21,12,05,18.30
2009,08,21,12,06,18.30
2009,08,21,12,07,18.30
2009,08,21,12,08,18.40
2009,08,21,12,09,18.40
2009,08,21,12,10,18.40
2009,08,21,12,11,18.50
2009,08,21,12,12,18.50
2009,08,21,12,13,18.50
2009,08,21,12,14,18.60
2009,08,21,12,15,18.60
2009,08,21,12,16,18.60
2009,08,21,12,17,18.60
2009,08,21,12,18,18.60
2009,08,21,12,19,18.60
2009,08,21,12,20,18.60
2009,08,21,12,21,18.60
2009,08,21,12,22,18.50
2009,08,21,12,23,18.60
2009,08,21,12,24,18.60
2009,08,21,12,25,18.60
2009,08,21,12,26,18.60
2009,08,21,12,27,18.70
2009,08,21,12,28,18.70
2009,08,21,12,29,18.80
2009,08,21,12,30,18.80
2009,08,21,12,31,18.90
2009,08,21,12,32,18.90
2009,08,21,12,33,19.00
2009,08,21,12,34,19.00
2009,08,21,12,35,19.10
2009,08,21,12,36,19.10
2009,08,21,12,37,19.10
2009,08,21,12,38,19.20
2009,08,21,12,39,19.20
2009,08,21,12,40,19.20
2009,08,21,12,41,19.30
2009,08,21,12,42,19.30
2009,08,21,12,43,19.30
2009,08,21,12,44,19.30
2009,08,21,12,45,19.30
2009,08,21,12,46,19.30
2009,08,21,12,47,19.30
2009,08,21,12,48,19.20
2009,08,21,12,49,19.20
2009,08,21,12,50,19.20
2009,08,21,12,51,19.20
2009,08,21,12,52,19.20
2009,08,21,12,53,19.20
2009,08,21,12,54,19.20
2009,08,21,12,55,19.20
2009,08,21,12,56,19.20
2009,08,21,12,57,19.30
2009,08,21,12,58,19.20
2009,08,21,12,59,19.20
2009,08,21,13,00,19.30
2009,08,21,13,01,19.30
2009,08,21,13,02,19.30
2009,08,21,13,03,19.30
2009,08,21,13,04,19.30
2009,08,21,13,05,19.40
2009,08,21,13,06,19.40
2009,08,21,13,07,19.40
2009,08,21,13,08,19.50
2009,08,21,13,09,19.50
2009,08,21,13,10,19.50
2009,08,21,13,11,19.50
2009,08,21,13,12,19.50
2009,08,21,13,13,19.50
2009,08,21,13,14,19.50
2009,08,21,13,15,19.50
2009,08,21,13,16,19.40
2009,08,21,13,17,19.40
2009,08,21,13,18,19.40
2009,08,21,13,19,19.40
2009,08,21,13,20,19.30
2009,08,21,13,21,19.30
2009,08,21,13,22,19.30
2009,08,21,13,23,19.30
2009,08,21,13,24,19.30
2009,08,21,13,25,19.30
2009,08,21,13,26,19.30
2009,08,21,13,27,19.20
2009,08,21,13,28,19.20
2009,08,21,13,29,19.20
2009,08,21,13,30,19.30
2009,08,21,13,31,19.30
2009,08,21,13,32,19.30
2009,08,21,13,33,19.30
2009,08,21,13,34,19.30
2009,08,21,13,35,19.30
2009,08,21,13,36,19.30
2009,08,21,13,37,19.40
2009,08,21,13,38,19.40
2009,08,21,13,39,19.40
2009,08,21,13,40,19.40
2009,08,21,13,41,19.50
2009,08,21,13,42,19.50
2009,08,21,13,43,19.50
2009,08,21,13,44,19.60
2009,08,21,13,45,19.60
2009,08,21,13,46,19.60
2009,08,21,13,47,19.60
2009,08,21,13,48,19.50
2009,08,21,13,49,19.50
2009,08,21,13,50,19.50
2009,08,21,13,51,19.50
2009,08,21,13,52,19.50
2009,08,21,13,53,19.50
2009,08,21,13,54,19.50
2009,08,21,13,55,19.50
2009,08,21,13,56,19.50
2009,08,21,13,57,19.50
2009,08,21,13,58,19.60
2009,08,21,13,59,19.70
2009,08,21,14,00,19.80
2009,08,21,14,01,19.90
2009,08,21,14,02,20.00
2009,08,21,14,03,20.00
2009,08,21,14,04,20.00
2009,08,21,14,05,20.10
2009,08,21,14,06,20.10
2009,08,21,14,07,20.00
2009,08,21,14,08,20.00
2009,08,21,14,09,19.90
2009,08,21,14,10,19.90
2009,08,21,14,11,19.80
2009,08,21,14,12,19.80
2009,08,21,14,13,19.70
2009,08,21,14,14,19.70
2009,08,21,14,15,19.60
2009,08,21,14,16,19.60
2009,08,21,14,17,19.60
2009,08,21,14,18,19.60
2009,08,21,14,19,19.60
2009,08,21,14,20,19.60
2009,08,21,14,21,19.50
2009,08,21,14,22,19.50
2009,08,21,14,23,19.50
2009,08,21,14,24,19.60
2009,08,21,14,25,19.60
2009,08,21,14,26,19.60
2009,08,21,14,27,19.60
2009,08,21,14,28,19.60
2009,08,21,14,29,19.60
2009,08,21,14,30,19.60
2009,08,21,14,31,19.60
2009,08,21,14,32,19.60
2009,08,21,14,33,19.60
2009,08,21,14,34,19.60
2009,08,21,14,35,19.60
2009,08,21,14,36,19.60
2009,08,21,14,37,19.60
2009,08,21,14,38,19.60
2009,08,21,14,39,19.60
2009,08,21,14,40,19.60
2009,08,21,14,41,19.60
2009,08,21,14,42,19.70
2009,08,21,14,43,19.70
2009,08,21,14,44,19.70
2009,08,21,14,45,19.70
2009,08,21,14,46,19.70
2009,08,21,14,47,19.80
2009,08,21,14,48,19.80
2009,08,21,14,49,19.80
2009,08,21,14,50,19.90
2009,08,21,14,51,19.90
2009,08,21,14,52,19.90
2009,08,21,14,53,19.90
2009,08,21,14,54,19.90
2009,08,21,14,55,19.90
2009,08,21,14,56,20.00
2009,08,21,14,57,20.00
2009,08,21,14,58,20.00
2009,08,21,14,59,20.10
2009,08,21,15,00,20.10
2009,08,21,15,01,20.20
2009,08,21,15,02,20.20
2009,08,21,15,03,20.20
2009,08,21,15,04,20.20
2009,08,21,15,05,20.20
2009,08,21,15,06,20.20
2009,08,21,15,07,20.20
2009,08,21,15,08,20.20
2009,08,21,15,09,20.30
2009,08,21,15,10,20.30
2009,08,21,15,11,20.20
2009,08,21,15,12,20.20
2009,08,21,15,13,20.20
2009,08,21,15,14,20.20
2009,08,21,15,15,20.20
2009,08,21,15,16,20.10
2009,08,21,15,17,20.10
2009,08,21,15,18,20.10
2009,08,21,15,19,20.10
2009,08,21,15,20,20.10
2009,08,21,15,21,20.00
2009,08,21,15,22,20.00
2009,08,21,15,23,20.00
2009,08,21,15,24,20.00
2009,08,21,15,25,20.00
2009,08,21,15,26,20.10
2009,08,21,15,27,20.10
2009,08,21,15,28,20.20
2009,08,21,15,29,20.30
2009,08,21,15,30,20.30
2009,08,21,15,31,20.40
2009,08,21,15,32,20.40
2009,08,21,15,33,20.50
2009,08,21,15,34,20.50
2009,08,21,15,35,20.60
2009,08,21,15,36,20.60
2009,08,21,15,37,20.60
2009,08,21,15,38,20.70
2009,08,21,15,39,20.70
2009,08,21,15,40,20.70
2009,08,21,15,41,20.70
2009,08,21,15,42,20.70
2009,08,21,15,43,20.70
2009,08,21,15,44,20.80
2009,08,21,15,45,20.80
2009,08,21,15,46,20.90
2009,08,21,15,47,20.90
2009,08,21,15,48,20.90
2009,08,21,15,49,21.00
2009,08,21,15,50,21.00
2009,08,21,15,51,21.10
2009,08,21,15,52,21.10
2009,08,21,15,53,21.00
2009,08,21,15,54,21.00
2009,08,21,15,55,21.00
2009,08,21,15,56,21.10
2009,08,21,15,57,21.10
2009,08,21,15,58,21.20
2009,08,21,15,59,21.20
2009,08,21,16,00,21.20
2009,08,21,16,01,21.20
2009,08,21,16,02,21.20
2009,08,21,16,03,21.20
2009,08,21,16,04,21.30
2009,08,21,16,05,21.30
2009,08,21,16,06,21.30
2009,08,21,16,07,21.30
2009,08,21,16,08,21.30
2009,08,21,16,09,21.40
2009,08,21,16,10,21.40
2009,08,21,16,11,21.40
2009,08,21,16,12,21.50
2009,08,21,16,13,21.50
2009,08,21,16,14,21.60
2009,08,21,16,15,21.70
2009,08,21,16,16,21.70
2009,08,21,16,17,21.80
2009,08,21,16,18,21.80
2009,08,21,16,19,21.80
2009,08,21,16,20,21.80
2009,08,21,16,21,21.80
2009,08,21,16,22,21.80
2009,08,21,16,23,21.70
2009,08,21,16,24,21.70
2009,08,21,16,25,21.60
2009,08,21,16,26,21.60
2009,08,21,16,27,21.60
2009,08,21,16,28,21.60
2009,08,21,16,29,21.60
2009,08,21,16,30,21.60
2009,08,21,16,31,21.60
2009,08,21,16,32,21.60
2009,08,21,16,33,21.50
2009,08,21,16,34,21.50
2009,08,21,16,35,21.40
2009,08,21,16,36,21.30
2009,08,21,16,37,21.30
2009,08,21,16,38,21.20
2009,08,21,16,39,21.20
2009,08,21,16,40,21.10
2009,08,21,16,41,21.10
2009,08,21,16,42,21.00
2009,08,21,16,43,20.90
2009,08,21,16,44,20.90
2009,08,21,16,45,20.80
2009,08,21,16,46,20.80
2009,08,21,16,47,20.90
2009,08,21,16,48,20.90
2009,08,21,16,49,20.90
2009,08,21,16,50,20.90
2009,08,21,16,51,20.90
2009,08,21,16,52,20.90
2009,08,21,16,53,20.90
2009,08,21,16,54,21.00
2009,08,21,16,55,21.00
2009,08,21,16,56,21.00
2009,08,21,16,57,21.00
2009,08,21,16,58,21.00
2009,08,21,16,59,21.00
2009,08,21,17,00,21.00
2009,08,21,17,01,20.90
2009,08,21,17,02,20.90
2009,08,21,17,03,20.90
2009,08,21,17,04,20.80
2009,08,21,17,05,20.80
2009,08,21,17,06,20.70
2009,08,21,17,07,20.70
2009,08,21,17,08,20.70
2009,08,21,17,09,20.70
2009,08,21,17,10,20.70
2009,08,21,17,11,20.70
2009,08,21,17,12,20.70
2009,08,21,17,13,20.70
2009,08,21,17,14,20.60
2009,08,21,17,15,20.60
2009,08,21,17,16,20.60
2009,08,21,17,17,20.70
2009,08,21,17,18,20.70
2009,08,21,17,19,20.70